Location: Unspecified
(0.0000°N, 0.0000°E)
Time: 18:48:01
(UTC+00:00)

Tiangong - Visible Passes

Search period start: 12 June 2025 00:00
Search period end: 22 June 2025 00:00
Orbit: 389 x 394 km, 41.5° (Epoch: 12 June)

Date Brightness Start Highest point End Pass type
(mag) Time Alt. Az. Time Alt. Az. Time Alt. Az.
15 Jun 0.1 19:30:07 10° N 19:31:36 18° NNE 19:31:36 18° NNE visible
16 Jun 1.1 20:08:49 10° WNW 20:09:25 14° WNW 20:09:25 14° WNW visible
17 Jun -2.1 19:11:06 10° NW 19:14:15 67° NE 19:14:53 50° ESE visible
18 Jun 0.8 19:51:41 10° WSW 19:52:43 13° WSW 19:52:43 13° WSW visible
19 Jun -0.7 18:52:52 10° WNW 18:55:47 33° SW 18:58:10 14° SSE visible
21 Jun -1.4 05:26:08 10° SSW 05:29:16 50° SE 05:32:23 10° ENE visible
21 Jun 0.7 18:35:58 10° WSW 18:37:11 12° SW 18:38:24 10° SSW visible
